Temperature
15 15 15 15 15 15 16 16 16 16 16 16 16 16 16 16 16 16 16 15 15 15 15 15 15 15 15 15 15 15 15 14 14 14 14 14 14 14 14 14 14 14 14
15 15 15 15 15 15 16 16 16 16 16 16 16 16 16 16 15 15 15 15 15 15 15 15 15 15 15 15 15 15 14 14 14 14 14 14 14 14 14 14 13 13 13
15 15 15 15 15 15 15 16 16 16 16 16 15 15 15 15 15 15 15 15 15 15 15 15 15 15 15 15 14 14 14 14 14 14 14 14 13 13 13 13 13 13 13
14 15 15 15 15 15 15 15 15 15 15 15 15 15 15 15 15 15 15 15 15 15 15 15 15 15 15 14 14 14 14 14 14 14 14 14 13 13 13 13 13 13 13
14 14 14 14 14 14 15 15 15 15 15 15 15 15 15 15 15 15 15 15 15 15 15 14 14 14 14 14 14 14 14 14 14 14 13 13 13 13 12 13 13 13 13
14 14 14 14 14 14 14 14 15 15 15 15 15 15 15 15 15 15 15 15 15 15 14 14 14 14 14 14 14 14 14 14 14 13 13 13 13 12 12 12 12 12 12
14 14 14 14 14 14 14 14 14 14 15 15 15 15 15 15 15 15 15 15 14 14 14 14 14 14 14 14 14 14 14 14 13 13 13 13 13 12 12 12 12 12 12
13 13 13 13 13 14 14 14 14 14 14 14 14 15 15 15 15 15 15 14 14 14 14 14 14 14 14 13 13 13 14 13 13 13 13 13 12 12 12 12 12 12 12
13 13 13 13 13 13 13 13 13 14 14 14 14 14 14 14 15 15 15 14 14 14 14 14 14 14 14 13 13 13 13 13 13 13 13 12 12 12 12 12 12 12 12
12 12 12 13 12 13 13 13 13 13 13 13 14 14 14 14 14 14 14 14 14 14 14 14 14 14 13 13 13 13 13 13 13 13 12 12 12 12 12 12 11 11 11
12 12 12 12 12 12 12 12 13 13 13 13 13 13 13 14 14 14 14 14 14 14 14 14 13 13 13 13 13 13 13 13 13 12 12 12 12 11 11 11 11 11 11
11 11 12 12 12 12 12 12 12 12 12 13 13 13 13 13 13 13 13 13 13 13 13 13 13 13 13 13 13 13 13 13 12 12 12 12 11 11 11 11 11 11 11
10 11 11 11 11 11 11 11 12 12 12 12 12 12 12 13 13 13 13 13 13 13 13 13 13 13 13 13 13 13 13 12 12 12 12 12 12 11 11 11 11 11 11
10 10 11 11 11 11 11 11 11 11 12 12 12 12 12 12 12 12 12 13 13 13 13 13 13 13 13 13 12 12 12 12 12 12 12 12 12 11 11 11 11 11 11
10 10 10 10 10 10 11 11 11 11 11 11 11 11 12 12 12 12 12 12 12 12 12 12 12 12 12 12 12 12 12 12 12 12 12 11 11 11 11 11 11 10 10
9 9 10 10 10 10 10 10 10 10 11 11 11 11 11 11 11 11 11 11 11 11 12 12 12 12 12 12 12 12 12 12 12 11 11 11 11 11 11 11 10 10 10
9 9 9 9 10 10 10 10 10 10 10 10 10 10 10 11 11 11 11 11 11 11 11 11 11 11 11 11 12 12 11 11 11 11 11 11 11 11 11 11 11 10 10
8 9 9 9 9 9 9 9 9 9 9 10 10 10 10 10 10 10 10 11 11 11 11 11 11 11 11 11 11 11 11 11 11 11 11 11 10 10 10 10 10 10 10
8 8 8 8 9 9 9 9 9 9 9 9 9 9 10 10 10 10 10 10 10 10 10 10 10 10 10 11 11 11 11 11 10 10 10 10 10 10 10 10 10 10 10
7 8 8 8 8 8 8 8 8 9 9 9 9 9 9 9 9 9 9 10 10 10 10 10 10 10 10 10 10 10 10 10 10 10 10 10 10 10 10 10 10 10 9
7 7 7 8 8 8 8 8 8 8 8 8 8 8 8 9 9 9 9 9 9 9 9 9 9 9 9 9 10 10 10 10 10 10 10 10 9 9 9 9 9 9 9
7 7 7 7 7 7 7 7 7 7 8 8 8 8 8 8 8 8 8 9 9 9 9 9 9 9 9 9 9 9 9 9 9 9 9 9 9 9 9 9 9 9 9
6 6 6 7 7 7 7 7 7 7 7 7 7 7 7 8 8 8 8 8 8 8 9 9 9 8 8 8 8 8 8 8 8 9 9 9 9 8 8 8 8 8 8
6 6 6 6 6 7 7 7 7 7 7 7 7 7 7 7 7 7 7 7 8 8 8 8 8 8 8 8 8 8 8 8 7 8 8 8 8 8 8 8 8 8 8
5 5 6 6 6 6 6 6 6 6 6 6 6 6 6 7 7 7 7 7 7 7 7 8 8 8 8 8 7 8 8 8 7 7 7 8 8 8 8 8 8 7 7
5 5 5 5 5 6 6 6 6 6 6 6 6 6 6 6 6 6 6 7 7 7 7 7 7 7 7 7 7 7 7 7 7 7 6 7 7 7 7 7 7 7 7
Wind_Speed
1 1 1 3 4 5 6 6 6 7 7 7 7 7 7 6 7 8 8 8 8 9 10 10 10 10 10 11 11 11 11 11 11 11 11 11 11 11 11 11 10 9 10
2 1 3 4 4 5 6 6 6 7 7 7 7 7 6 6 6 7 8 8 7 8 8 9 10 10 10 10 10 10 10 10 11 11 10 10 10 10 11 11 10 9 10
3 3 4 4 4 5 5 6 6 6 7 7 7 7 6 6 6 7 7 7 7 7 8 9 9 10 10 10 10 10 10 10 10 10 10 8 7 9 10 9 9 9 9
3 4 4 5 4 4 5 5 6 6 6 6 6 6 6 5 5 6 7 6 6 7 7 8 8 9 10 9 10 10 10 10 10 9 8 6 5 7 8 8 8 8 8
4 4 4 5 4 5 4 5 5 5 5 5 6 6 6 5 5 5 5 6 6 6 7 7 8 8 9 9 9 9 9 9 9 8 7 6 5 6 7 7 7 7 7
4 4 4 4 4 5 5 5 5 4 5 5 5 5 5 5 5 5 4 5 6 5 6 7 7 8 8 9 9 9 9 9 8 7 6 5 4 5 6 7 7 6 6
3 4 4 4 4 5 5 5 4 4 4 5 4 4 4 4 5 4 4 4 5 5 6 6 6 7 8 8 8 8 8 8 7 6 5 4 3 5 6 6 5 5 5
2 4 4 4 4 5 5 5 4 4 5 4 4 4 3 3 4 4 3 3 3 4 5 6 6 6 7 8 8 8 8 8 6 4 3 3 3 5 5 5 4 4 4
3 4 4 4 4 4 4 4 5 5 5 4 5 4 4 4 4 3 3 3 3 3 4 5 5 6 7 7 8 8 8 7 6 4 3 1 3 4 4 4 3 3 4
3 3 3 4 5 4 4 5 5 5 5 5 6 6 5 5 5 4 4 3 2 3 4 4 4 5 6 7 8 8 8 7 5 3 2 1 2 3 3 3 3 3 4
2 2 2 4 5 4 4 4 5 5 6 6 6 7 6 6 5 5 5 4 3 3 3 3 4 4 5 6 7 8 7 5 4 3 1 1 2 2 3 3 3 3 3
1 1 1 3 4 4 4 5 5 5 5 6 6 6 6 6 6 5 5 5 4 3 3 3 3 4 4 4 5 6 5 4 3 2 1 2 2 1 2 2 2 2 3
2 1 0 2 3 3 4 4 4 5 5 6 6 6 6 6 6 6 5 5 5 5 4 4 4 4 4 3 3 4 4 4 3 2 1 1 1 1 1 1 1 2 2
1 1 0 2 2 3 3 3 4 4 4 4 4 5 5 4 4 4 4 4 4 4 4 4 4 4 3 3 3 3 4 3 2 2 1 1 1 0 0 1 1 1 2
2 2 1 1 2 2 3 3 3 3 2 2 3 3 4 3 2 2 3 3 4 3 2 2 2 2 2 2 2 3 2 3 2 2 1 2 1 0 0 1 1 2 3
3 3 1 1 1 2 2 2 2 2 2 2 3 3 3 3 2 2 2 2 2 2 2 1 1 2 1 1 2 2 2 2 2 1 1 1 1 1 0 0 2 3 4
3 2 1 1 1 2 2 2 2 2 2 2 2 2 2 3 2 1 1 1 2 2 2 2 2 2 1 1 1 1 1 1 2 1 1 1 1 0 0 1 2 3 4
2 1 1 1 1 1 1 1 2 2 2 2 2 2 2 2 2 1 1 1 2 2 2 1 1 1 1 1 0 0 0 1 1 1 1 1 1 0 1 1 2 3 4
2 1 1 1 0 1 1 1 2 2 2 2 2 2 1 1 1 1 1 1 2 1 1 0 1 1 0 1 0 0 0 1 1 1 1 1 1 0 1 1 2 3 4
2 1 1 1 0 1 1 1 1 1 1 2 1 1 1 1 1 1 1 1 1 0 1 1 1 1 0 0 0 0 0 1 1 1 1 0 0 1 0 1 2 3 4
2 3 2 1 1 0 1 1 1 1 1 1 1 1 0 1 1 1 1 1 1 0 0 0 1 2 1 1 1 0 1 1 1 1 1 1 1 1 0 1 2 2 3
2 3 2 1 1 1 1 1 2 2 2 1 1 1 1 1 0 0 0 1 1 0 0 0 1 1 1 1 1 1 1 1 1 1 1 2 2 0 0 1 1 2 2
3 3 3 2 2 1 1 0 0 0 1 1 1 1 2 1 1 1 1 0 1 1 0 0 1 2 2 0 1 1 1 2 2 2 1 1 1 1 1 1 1 1 2
3 3 3 2 2 2 1 1 2 2 1 1 1 1 2 2 1 1 1 1 0 0 0 0 1 1 2 1 0 1 0 1 1 1 2 1 1 1 2 1 2 2 2
3 3 3 2 2 1 1 1 2 2 1 1 0 0 1 1 2 2 1 1 0 0 0 0 1 1 1 1 1 0 1 1 1 1 2 2 2 2 2 2 2 2 2
3 3 3 2 3 2 1 1 2 2 2 1 1 0 1 1 0 2 1 1 1 0 1 1 1 1 1 1 1 1 1 0 0 0 2 2 3 3 2 1 1 1 2
Wind_Direction
217 283 121 107 110 106 99 92 88 83 84 83 87 95 97 105 113 114 122 122 119 116 114 113 112 109 106 104 99 95 92 89 87 86 86 84 80 77 75 75 73 70 70
166 132 124 102 112 109 103 95 89 85 83 84 83 88 96 100 107 114 118 119 120 120 119 115 114 113 109 107 104 99 95 92 86 82 82 79 78 78 76 75 72 71 66
102 102 114 103 99 107 106 101 92 88 86 83 80 78 84 97 108 109 114 116 119 120 120 118 118 116 113 111 108 104 101 97 89 85 79 70 75 79 79 78 74 70 66
90 89 99 97 89 97 110 107 99 93 92 87 81 77 74 84 102 112 109 115 122 121 122 124 121 121 119 117 112 108 105 101 95 87 72 67 73 82 79 77 74 69 66
66 74 96 93 84 88 106 105 100 96 95 91 84 81 76 75 86 105 115 114 124 132 126 129 129 128 126 122 117 112 108 105 97 82 68 61 66 84 80 75 72 69 66
50 61 88 92 87 85 91 99 97 100 97 92 89 84 83 74 75 86 108 121 118 131 136 132 136 134 133 128 123 118 113 108 94 78 65 57 68 86 83 79 74 72 70
54 52 81 92 92 86 84 89 91 93 94 90 91 91 90 84 77 77 90 116 123 124 139 141 140 140 140 135 129 123 118 114 97 80 63 54 77 91 88 84 79 74 68
69 54 74 86 93 88 84 80 82 83 84 82 80 84 84 90 90 83 86 115 131 131 132 146 148 147 148 143 133 126 121 117 102 86 66 57 88 92 91 86 81 75 66
55 57 51 71 78 92 91 82 77 80 79 79 76 71 75 79 84 84 82 95 116 134 131 140 148 151 154 148 137 132 125 117 102 89 81 65 99 94 87 81 72 69 57
50 49 42 52 60 62 81 86 77 77 76 74 73 60 66 72 74 75 70 75 88 107 128 129 142 143 151 146 141 137 128 117 101 91 70 83 107 95 83 76 70 61 52
28 41 48 56 46 48 62 81 81 78 77 72 67 62 56 58 60 61 60 60 58 77 102 118 125 126 131 139 143 137 125 111 109 89 66 104 112 101 88 77 63 53 44
296 325 58 62 58 53 56 60 69 68 67 66 63 64 59 53 54 57 56 54 51 61 83 100 104 113 101 106 125 128 118 115 114 101 85 119 127 119 98 78 61 34 26
234 283 41 66 62 65 59 50 52 58 55 60 64 67 66 57 52 51 46 37 37 42 49 61 66 80 96 96 100 113 118 117 116 120 114 117 136 135 92 84 66 22 13
291 275 273 68 64 64 72 63 52 53 59 59 65 75 72 63 51 47 47 35 37 43 41 48 55 53 82 105 111 112 118 123 129 132 147 140 132 116 100 58 30 3 359
292 276 216 132 111 85 82 73 50 40 46 70 72 75 81 76 56 42 40 42 33 37 44 51 58 66 60 87 105 118 123 130 139 138 152 152 143 146 123 22 356 351 348
276 269 234 156 124 103 93 89 64 49 43 58 61 61 76 79 73 48 27 29 18 21 32 62 91 100 76 94 120 121 117 135 139 129 130 166 164 158 180 316 331 333 337
284 275 283 211 129 122 115 100 76 56 53 40 49 57 69 73 76 67 37 6 3 17 35 59 77 80 90 84 100 117 115 133 135 125 124 130 149 195 230 298 324 323 326
319 277 281 274 148 143 121 94 78 61 59 40 47 51 55 59 62 64 35 344 1 27 48 84 101 79 93 84 112 212 151 150 157 143 126 125 112 299 270 308 324 321 323
318 266 267 311 199 174 127 86 82 66 51 37 57 52 41 43 44 48 15 350 5 23 30 61 98 107 145 78 103 144 186 198 204 156 141 142 157 151 304 306 325 323 316
335 333 300 313 303 172 126 77 54 36 15 21 38 43 39 25 21 34 12 347 3 7 16 26 106 70 64 153 133 49 280 228 205 194 215 216 210 205 295 341 338 324 315
348 352 321 308 315 353 170 184 236 274 304 318 343 15 17 17 17 35 351 326 325 225 228 230 145 118 61 34 80 36 334 267 220 224 227 227 247 243 183 6 343 335 317
320 321 326 300 310 292 253 211 216 233 255 284 326 354 4 25 11 287 246 260 274 257 79 107 109 129 109 67 122 130 331 317 295 258 252 223 222 253 319 328 324 331 329
318 303 316 298 286 269 276 227 141 19 360 2 325 309 342 359 1 2 307 290 277 216 173 143 134 127 154 81 77 132 154 235 301 298 258 253 235 219 238 298 299 300 310
314 310 296 306 290 272 225 195 199 206 232 246 254 276 327 360 5 6 359 337 327 29 93 186 121 132 150 163 39 28 10 181 190 299 293 271 266 245 246 266 283 295 301
321 311 293 313 306 286 242 201 203 210 233 232 101 357 342 351 12 8 9 17 5 339 153 138 124 119 144 150 137 35 21 22 43 205 272 296 309 274 260 263 266 290 312
338 336 315 318 321 309 274 199 200 201 199 171 158 181 312 316 350 8 11 10 2 319 203 195 177 151 145 124 113 117 130 171 224 250 264 281 299 302 293 271 266 298 333
Height
1514 1515 1516 1517 1517 1518 1519 1519 1519 1520 1520 1520 1521 1522 1522 1523 1523 1523 1524 1524 1525 1526 1526 1526 1527 1527 1527 1527 1528 1528 1528 1528 1528 1528 1528 1529 1529 1529 1529 1529 1529 1529 1529
1513 1514 1515 1516 1517 1518 1518 1519 1519 1519 1520 1520 1521 1521 1522 1522 1523 1523 1524 1524 1525 1526 1526 1526 1527 1527 1527 1528 1528 1528 1528 1528 1529 1529 1529 1529 1529 1529 1529 1529 1529 1529 1529
1513 1514 1515 1515 1516 1517 1518 1518 1519 1519 1519 1520 1520 1521 1521 1522 1522 1523 1523 1524 1525 1525 1526 1526 1526 1527 1527 1528 1528 1528 1528 1529 1529 1529 1529 1529 1529 1530 1530 1530 1529 1529 1529
1513 1514 1514 1515 1516 1516 1517 1518 1518 1519 1519 1519 1520 1520 1521 1521 1522 1522 1523 1523 1524 1525 1525 1526 1526 1527 1527 1528 1528 1528 1528 1529 1529 1529 1529 1530 1530 1530 1530 1530 1529 1529 1529
1513 1513 1514 1514 1515 1516 1516 1517 1517 1518 1518 1519 1519 1520 1520 1521 1521 1522 1522 1523 1524 1524 1525 1525 1526 1526 1527 1527 1528 1528 1528 1529 1529 1529 1530 1530 1530 1530 1530 1530 1530 1529 1529
1512 1513 1513 1514 1514 1515 1515 1516 1516 1517 1518 1518 1518 1519 1519 1520 1520 1521 1522 1522 1523 1523 1524 1525 1525 1526 1526 1527 1527 1528 1528 1529 1529 1529 1530 1530 1530 1530 1530 1530 1530 1529 1529
1511 1512 1512 1513 1514 1514 1514 1515 1515 1516 1517 1517 1517 1518 1518 1519 1519 1520 1521 1521 1522 1522 1523 1524 1524 1525 1526 1526 1527 1527 1528 1529 1529 1529 1530 1530 1530 1530 1530 1530 1529 1529 1529
1511 1511 1512 1512 1513 1513 1513 1514 1514 1515 1515 1516 1516 1517 1517 1518 1518 1519 1519 1520 1521 1521 1522 1523 1523 1524 1525 1526 1526 1527 1528 1528 1529 1529 1530 1530 1530 1530 1530 1529 1529 1529 1528
1510 1510 1511 1511 1512 1512 1512 1513 1513 1514 1514 1514 1515 1515 1516 1516 1517 1517 1518 1519 1519 1520 1521 1522 1522 1523 1524 1524 1525 1526 1527 1528 1528 1529 1529 1529 1530 1530 1529 1529 1529 1528 1528
1509 1509 1510 1510 1510 1511 1511 1512 1512 1513 1513 1513 1514 1514 1514 1515 1515 1516 1516 1517 1518 1519 1519 1520 1521 1521 1522 1523 1524 1525 1526 1527 1528 1528 1528 1529 1529 1529 1529 1528 1528 1527 1527
1508 1508 1508 1508 1509 1509 1510 1510 1511 1511 1512 1512 1512 1513 1513 1513 1513 1514 1515 1515 1516 1517 1518 1519 1519 1520 1521 1522 1523 1524 1524 1526 1527 1527 1527 1528 1528 1528 1528 1527 1527 1527 1526
1506 1506 1506 1507 1507 1508 1508 1509 1509 1509 1510 1510 1511 1511 1511 1511 1512 1512 1513 1514 1514 1515 1516 1517 1518 1519 1520 1520 1521 1522 1523 1524 1525 1526 1526 1527 1527 1527 1527 1526 1526 1525 1525
1504 1504 1505 1505 1506 1506 1507 1507 1508 1508 1508 1509 1509 1510 1510 1510 1510 1511 1511 1512 1512 1513 1514 1515 1516 1517 1518 1518 1519 1520 1521 1523 1524 1524 1525 1525 1525 1526 1525 1525 1524 1524 1524
1502 1502 1503 1503 1504 1505 1505 1505 1506 1506 1506 1507 1507 1508 1508 1508 1509 1509 1509 1510 1510 1511 1512 1513 1513 1515 1516 1517 1518 1518 1519 1520 1522 1522 1523 1524 1524 1524 1524 1523 1523 1522 1522
1501 1501 1501 1502 1502 1503 1503 1503 1504 1504 1505 1505 1505 1506 1507 1507 1507 1507 1507 1508 1509 1509 1510 1511 1511 1512 1513 1514 1516 1517 1518 1519 1520 1520 1521 1522 1522 1522 1522 1521 1521 1521 1520
1499 1499 1499 1499 1500 1501 1501 1502 1502 1502 1502 1503 1503 1504 1504 1505 1505 1505 1505 1506 1507 1507 1508 1508 1509 1510 1511 1512 1513 1515 1515 1516 1517 1518 1519 1520 1520 1520 1520 1519 1519 1519 1518
1497 1497 1497 1497 1498 1499 1499 1499 1500 1500 1501 1501 1502 1502 1502 1503 1503 1503 1504 1504 1504 1505 1505 1506 1507 1507 1509 1509 1511 1512 1513 1514 1515 1516 1517 1517 1518 1518 1518 1517 1517 1516 1516
1496 1495 1495 1496 1496 1497 1497 1498 1498 1498 1498 1499 1499 1500 1500 1500 1501 1501 1502 1502 1502 1503 1503 1504 1504 1505 1506 1507 1508 1509 1510 1511 1512 1513 1514 1515 1515 1515 1515 1515 1514 1514 1513
1495 1495 1494 1494 1494 1495 1495 1496 1496 1496 1496 1497 1497 1498 1498 1498 1499 1499 1499 1500 1500 1500 1501 1501 1502 1502 1503 1504 1505 1506 1507 1508 1510 1511 1511 1512 1512 1512 1513 1512 1512 1511 1510
1493 1493 1493 1493 1493 1493 1493 1493 1494 1494 1494 1494 1494 1495 1495 1496 1496 1497 1497 1497 1497 1498 1498 1499 1499 1500 1501 1502 1502 1503 1504 1506 1507 1508 1509 1509 1510 1510 1510 1510 1509 1509 1508
1490 1490 1490 1490 1490 1490 1490 1490 1491 1491 1491 1492 1492 1492 1492 1493 1493 1494 1494 1495 1495 1495 1496 1496 1496 1498 1499 1499 1500 1501 1502 1503 1503 1505 1506 1506 1506 1506 1506 1506 1506 1506 1505
1488 1488 1487 1488 1488 1488 1488 1489 1489 1489 1489 1489 1489 1489 1490 1490 1491 1491 1492 1492 1492 1493 1493 1493 1493 1495 1496 1497 1498 1498 1499 1501 1500 1501 1502 1503 1503 1503 1503 1503 1503 1502 1502
1487 1486 1486 1485 1486 1486 1487 1487 1487 1487 1486 1486 1486 1486 1487 1487 1488 1489 1490 1490 1490 1490 1490 1491 1492 1492 1493 1495 1496 1497 1497 1497 1497 1498 1499 1499 1500 1500 1500 1500 1500 1499 1499
1484 1484 1484 1484 1484 1484 1484 1484 1484 1483 1483 1483 1484 1484 1484 1485 1486 1487 1487 1488 1488 1488 1488 1489 1489 1490 1491 1492 1494 1494 1496 1495 1496 1495 1496 1497 1497 1497 1497 1496 1496 1496 1496
1483 1482 1481 1481 1481 1481 1481 1481 1481 1480 1481 1481 1481 1482 1482 1482 1483 1484 1485 1485 1486 1486 1487 1487 1488 1488 1490 1490 1491 1491 1492 1493 1493 1493 1492 1493 1493 1493 1493 1493 1493 1493 1492
1481 1480 1479 1478 1478 1478 1478 1479 1479 1478 1478 1478 1478 1479 1479 1480 1481 1482 1482 1482 1483 1484 1485 1485 1486 1487 1487 1488 1489 1489 1490 1490 1490 1491 1490 1489 1489 1489 1489 1490 1489 1489 1489